Regional Weather Roundup
Issued by NWS

Home | Current Version | Previous Version | Graphics & Text | Print | Product List | Glossary On
Versions: 1 2 3 4 5 6 7 8 9 10 11 12 13 14 15 16 17 18 19 20 21 22 23 24 25 26 27 28 29 30 31 32 33 34 35 36 37 38 39 40 41 42 43 44 45 46 47 48 49 50
225
ASUS43 KIND 251609
RWRIN

WEATHER ROUNDUP FOR INDIANA
NATIONAL WEATHER SERVICE INDIANAPOLIS IN
1200 PM EDT THU MAY 25 2017

NOTE: "FAIR" INDICATES FEW OR NO CLOUDS BELOW 12,000 FEET WITH NO
SIGNIFICANT WEATHER AND/OR OBSTRUCTIONS TO VISIBILITY.

* - STATION DOES NOT REPORT WEATHER SUCH AS PRECIPITATION OR FOG.

+ - STATION NOT QUALITY CONTROLLED BY THE NATIONAL WEATHER SERVICE.
    USE DATA WITH CAUTION...ESPECIALLY DEWPOINT AND RELATIVE
    HUMIDITY OBSERVATIONS.

INZ001>003-010>013-019-020-251700-
NORTHWEST INDIANA

CITY           SKY/WX    TMP DP  RH WIND       PRES   REMARKS
GARY /AIRPORT/ CLOUDY    55  52  88 NW12G23   29.62S
KNOX *+        CLOUDY    54  54 100 NW10      29.58R
LA PORTE +     CLOUDY    52  51  94 NW13      29.59S
MICHIGAN CITY+ CLOUDY    50  50 100 NW10      29.61R
MONTICELLO +   CLOUDY    56  54  92 NW15      29.57R
RENSSELAER +   CLOUDY    55  54  94 NW14      29.60S
VALPARAISO     CLOUDY    54  51  90 N9G18     29.60R

$$

LMZ046-743>745-251700-
SOUTHERN LAKE MICHIGAN

STATION/POSITION TIME  TEMP    WIND        PRES    WAVE
                       AIR SEA DIR/SP/G            HT
                 (UTC) (F)     (DEG/KT/KT) (MB)    (FT)
BURNS HARBOR     1540   49     340/ 16/ 20 1003.0R
MICHIGAN CITY    1540   49     320/ 19/ 20   N/A
5NW MICH CITY    1600   48 52  330/ 14/ 19   N/A     5

$$

INZ004-005-014>016-021>024-251700-
NORTH CENTRAL INDIANA

CITY           SKY/WX    TMP DP  RH WIND       PRES   REMARKS
ELKHART        CLOUDY    59  55  88 NW7       29.55R
GOSHEN         CLOUDY    60  55  83 N14       29.53R
LOGANSPORT +   CLOUDY    55  54  94 NW10      29.56S
PERU/GRISSOM   CLOUDY    58  58 100 NW14      29.53R
ROCHESTER +    CLOUDY   N/A N/A N/A NW14G20   29.54R
SOUTH BEND     CLOUDY    57  55  93 NW13      29.56S
WARSAW +       CLOUDY    59  55  88 N9        29.53R

$$

INZ006>009-017-018-025>027-251700-
NORTHEAST INDIANA

CITY           SKY/WX    TMP DP  RH WIND       PRES   REMARKS
ANGOLA *+      CLOUDY    61  52  72 NW7       29.50R
AUBURN +       CLOUDY    61  55  82 N7        29.50R
FORT WAYNE     CLOUDY    62  58  86 N10       29.49R
HUNTINGTON +   CLOUDY    60  59  96 NW10      29.51R
KENDALLVILLE + CLOUDY    59  58  95 NW9       29.51R

$$

INZ028-029-035-036-043>045-051>053-251700-
WEST CENTRAL INDIANA

CITY           SKY/WX    TMP DP  RH WIND       PRES   REMARKS
CRAWFORDSVL +  CLOUDY    58  58 100 NW15G22   29.59R
GREENCASTLE +  CLOUDY    59  54  82 NW12G17   29.59S
LAFAYETTE      CLOUDY    59  56  89 N16G25    29.58R
TERRE HAUTE    CLOUDY    59  53  80 NW10G20   29.62R

$$

INZ030>032-037>040-046>048-054>057-064-065-251700-
CENTRAL INDIANA

CITY           SKY/WX    TMP DP  RH WIND       PRES   REMARKS
ANDERSON       LGT RAIN N/A N/A N/A NW17      29.52R
CP ATTERBURY + CLOUDY    55  54  94 NW13G18   29.55R
COLUMBUS       LGT RAIN  57  54  88 NW16G23   29.54R
FISHERS *+     CLOUDY    55  55 100 NW16      29.55R
FRANKFORT +    CLOUDY    58  56  93 N14G21    29.58R FOG
GREENWOOD *+   CLOUDY   N/A N/A N/A NW15      29.55R
INDIANAPOLIS   RAIN      57  56  96 NW16      29.55R FOG
-EAGLE CREEK   LGT RAIN  57  54  89 NW16      29.54R FOG
KOKOMO +       CLOUDY    57  56  96 NW15      29.54R FOG
MT COMFORT *+  CLOUDY    55  55 100 NW16G23   29.53R
SHELBYVILLE    CLOUDY    59  55  87 NW16G26   29.52R
ZIONSVILLE +   CLOUDY    55  54  96 NW17G24   29.55R FOG

$$

INZ033-034-041-042-049-050-058-059-251700-
EAST CENTRAL INDIANA

CITY           SKY/WX    TMP DP  RH WIND       PRES   REMARKS
MUNCIE         LGT RAIN  63  59  87 NW18      29.49R
RICHMOND +     RAIN      59  57  94 NW6       29.47R

$$

INZ060-061-067>069-081>083-085>088-251700-
SOUTHWEST INDIANA

CITY           SKY/WX    TMP DP  RH WIND       PRES   REMARKS
EVANSVILLE     CLOUDY    64  54  69 W10       29.68R
HUNTINGBURG *+ CLOUDY    62  56  80 W16       29.64R
WASHINGTON +   CLOUDY    61  54  76 NW18G25   29.63R

$$

INZ062-063-066-070>080-084-089>092-251700-
SOUTH CENTRAL AND SOUTHEAST INDIANA

CITY           SKY/WX    TMP DP  RH WIND       PRES   REMARKS
BEDFORD +      CLOUDY    57  54  88 W6        29.58  FOG
BLOOMINGTON    CLOUDY    58  54  86 NW8G20    29.58R
MADISON *+     CLOUDY    57  55  94 W12G18    29.55R
NORTH VERNON + CLOUDY    55  54  94 W15G24    29.53R FOG
SEYMOUR +      CLOUDY    59  55  88 W13       29.55

$$





USA.gov is the U.S. government's official web portal to all federal, state and local government web resources and services.